Find Starlink 4709

NORAD ID: 53778 Int'l Des: 2022-111 Owner: SPXS Country: US Constellation: starlink operational
LEOCIRCULAR

Live-Position

3D-Globus wird geladen...

Über Starlink 4709

Beschreibung wird geladen...

Nächste Überflüge

Passes for default location (London). Set your location on the main map for personalized predictions.

Höhenverlauf

Loading altitude history...

Zweizeiliger Elementsatz

1 53778U 22111F 26121.50798808 .00003875 00000-0 26132-3 0 9994
2 53778 53.2171 41.7354 0001471 94.4734 265.6426 15.08851726201602
Epoch: 1. Mai 2026 • Age: 11 hours

Aktueller Status

Höhe 552.4 km
Geschwindigkeit 7.58 km/s
Subsatellitenpunkt -36.86°S, 159.33°E
Startdatum 11. Sept. 2022
Alter 3.6 years
Typ internet

Technische Details

Klassifizierung Payload
Masse 305.00 kg
Trockenmasse 290.00 kg
Gesamtmasse 305.00 kg
Länge 0.20 m
Durchmesser 2.80 m
Spannweite 9.00 m
Form Box + pan
Hersteller SPXS
Bus-Typ Starlink
Phasenstatus In Orbit
Besitzer/Staat SPXS/US

Most Searched